Dewpoint
36 33 36 34 31 29 28 28 27 24 19 18 15 15 17 20 25 30 31 31 29 28 28 29 30 29 30 30 31 40 45 47 47 48 52 56 58 59 60 60 61 63 63 65 65 66 66 66 67 68 68 68 69 70 71 71 71 71 70 71 72 71 72 71 70 70 69 68 69 70 68 68 69 71 72 70 70 69 68 70 72 74 74 74 75 75
35 29 31 30 27 29 29 28 26 23 19 19 19 15 13 14 18 26 31 31 29 29 31 33 29 30 31 31 30 33 44 46 46 48 53 56 58 59 61 61 62 63 63 64 65 65 66 66 67 67 68 68 68 69 70 70 71 71 71 72 72 72 72 71 71 70 70 70 69 69 69 68 68 70 71 70 71 70 69 72 74 75 74 74 75 75
30 28 27 29 27 27 27 25 25 23 20 18 16 15 16 17 17 19 27 29 30 31 31 31 31 31 31 31 31 32 43 46 45 48 51 56 58 59 60 61 62 63 64 64 65 65 65 66 66 68 68 68 68 69 69 71 71 71 72 72 73 72 72 71 72 71 71 71 72 71 70 70 67 70 71 69 70 71 69 71 75 75 74 75 75 75
26 24 24 24 25 24 23 25 24 23 22 19 14 13 14 17 18 21 25 28 30 29 29 33 27 28 30 33 32 31 39 46 45 45 48 53 57 59 59 61 62 63 64 64 65 64 64 66 67 68 69 69 69 69 69 69 70 71 72 72 73 73 73 73 73 73 73 73 74 74 73 72 70 69 71 72 72 72 71 70 73 75 75 75 74 74
23 23 22 22 23 23 23 25 23 21 17 16 14 11 10 11 15 18 25 27 27 27 27 28 30 30 31 30 30 33 35 41 43 47 50 53 56 58 59 60 62 62 64 65 65 65 65 66 67 68 69 69 68 68 69 69 69 69 71 72 73 73 73 73 74 74 74 74 74 74 74 73 72 71 71 72 71 72 73 70 72 74 75 75 74 74
23 23 26 22 23 24 24 21 19 15 13 12 13 12 11 10 10 11 15 18 22 25 27 28 30 30 33 31 29 31 41 45 47 51 52 55 57 59 59 60 62 62 65 65 65 66 65 66 67 69 70 69 69 69 69 69 68 70 70 72 73 73 73 73 74 75 74 74 73 72 72 71 71 71 70 71 71 70 71 69 69 73 74 73 74 74
22 23 27 24 23 25 25 18 18 18 12 10 10 12 11 10 10 11 13 19 21 24 26 29 29 29 32 30 31 35 46 47 51 53 53 55 58 59 59 60 61 62 63 65 65 66 65 66 67 68 69 69 68 68 69 69 69 70 71 72 73 73 73 73 74 75 74 74 74 74 73 71 70 70 70 72 71 70 70 71 70 71 74 74 73 73
24 24 27 26 25 24 22 17 17 19 15 10 11 14 15 13 13 14 17 16 18 22 26 28 27 28 30 29 34 39 42 46 50 53 54 53 59 57 59 58 61 61 62 64 65 66 66 67 67 67 69 69 67 68 68 68 70 72 73 73 73 73 73 74 74 74 75 74 74 74 73 71 70 69 70 72 73 72 73 72 71 71 73 75 74 72
24 23 27 27 26 22 20 18 18 20 17 13 13 16 20 19 16 15 14 13 17 20 24 25 29 31 31 33 34 33 35 42 44 48 54 54 57 59 59 58 60 61 62 63 64 65 65 66 66 67 68 68 68 68 68 69 71 72 73 74 74 74 74 74 75 75 75 74 74 74 73 72 71 71 71 72 73 72 73 74 73 73 73 75 76 74
25 25 26 27 25 21 22 21 19 19 19 17 16 23 21 19 17 14 13 15 19 22 23 26 26 29 28 29 29 32 34 37 39 41 45 53 55 57 57 59 59 61 62 62 63 65 66 66 66 66 67 68 68 68 70 70 71 71 73 74 74 75 74 75 75 75 75 75 74 74 73 73 72 72 72 71 73 74 75 74 75 74 74 73 75 75
21 30 29 26 25 22 24 24 23 21 22 20 16 21 19 18 18 19 19 21 22 21 22 21 23 23 22 27 27 30 34 35 33 35 39 49 54 55 58 57 58 60 61 62 62 64 65 66 66 67 67 68 69 69 69 70 70 71 72 74 74 75 74 75 75 75 75 75 74 74 74 74 74 74 73 73 73 74 75 75 74 74 74 74 73 72
19 22 23 24 26 23 22 23 24 24 24 21 16 18 17 19 20 22 21 24 20 19 26 21 20 20 21 24 27 30 31 34 35 32 35 43 51 55 57 55 57 59 61 62 62 63 65 67 67 67 67 68 69 69 69 69 70 71 72 73 74 75 75 75 75 75 75 74 74 75 75 75 74 75 74 74 73 74 75 75 73 74 74 75 73 74
15 19 20 22 28 22 22 19 22 24 24 20 18 22 17 18 21 22 22 20 19 18 20 17 18 18 20 26 26 27 26 28 35 32 31 35 46 53 54 56 57 58 59 62 63 63 64 66 66 67 68 69 70 70 70 69 69 71 72 74 74 75 75 74 74 75 74 74 75 75 75 75 75 75 75 74 74 74 74 74 74 74 74 74 74 73
12 16 19 19 20 24 20 16 21 21 19 18 19 20 19 18 21 21 19 20 20 20 16 18 20 19 22 23 26 23 27 29 31 35 32 32 36 49 54 56 55 57 59 61 62 63 64 66 66 67 68 69 70 70 69 69 70 71 71 74 74 74 74 75 74 74 74 74 74 75 75 75 75 75 75 75 74 74 74 74 74 73 72 74 74 73
12 11 15 18 18 22 18 17 19 19 18 18 17 15 19 22 21 22 20 18 17 18 19 18 21 23 19 22 21 23 25 29 29 27 33 34 33 42 50 53 54 57 59 61 62 62 63 65 67 67 68 69 69 69 69 69 70 71 72 73 74 75 75 75 75 74 73 73 74 74 74 75 76 75 75 75 74 74 74 73 74 74 72 72 73 73
13 13 14 17 20 20 17 18 18 19 18 17 17 16 18 19 22 19 19 15 15 15 16 23 21 21 20 30 31 31 24 26 25 25 27 30 31 32 41 48 51 53 56 58 61 62 64 66 67 67 67 68 69 70 69 70 71 71 72 73 74 74 75 75 75 74 74 74 73 74 75 75 75 75 75 75 75 75 74 75 74 74 74 73 73 74
17 15 16 17 18 19 18 18 18 19 18 18 16 16 16 18 16 20 24 20 22 22 21 24 24 21 21 22 24 24 24 26 26 24 24 29 30 36 37 44 49 51 55 58 60 61 65 64 67 67 68 67 68 68 69 71 71 72 72 72 74 74 75 75 75 74 73 73 74 74 74 74 74 74 74 74 74 73 74 75 75 74 74 74 74 73
18 17 18 18 16 18 20 18 17 18 18 18 16 16 17 17 18 22 16 22 18 12 16 14 17 21 21 19 21 20 20 20 23 24 22 31 34 37 41 47 51 51 54 58 61 63 64 64 65 66 66 67 67 68 70 71 72 72 72 72 73 74 74 74 74 74 74 74 74 75 74 75 75 74 74 74 74 74 74 75 75 74 74 74 73 73
20 18 18 19 17 17 19 18 16 17 18 16 16 17 15 18 18 22 23 17 14 14 13 10 8 11 17 24 26 23 18 18 25 29 27 26 30 35 40 45 50 52 53 57 59 61 62 63 64 66 65 65 67 69 70 70 70 71 71 71 70 72 72 72 72 73 74 74 74 74 75 74 74 74 75 74 75 75 74 73 74 74 73 73 74 74
21 18 20 19 17 17 19 18 17 15 17 16 19 17 17 19 20 21 22 22 20 15 19 15 10 11 22 19 18 25 27 25 20 23 23 23 27 31 36 37 45 51 53 55 57 59 61 62 62 63 64 63 65 67 68 68 68 68 69 70 70 71 73 73 73 74 73 73 73 73 74 75 75 76 75 75 75 74 74 74 73 74 72 73 74 74
25 26 20 18 18 19 18 17 15 17 17 15 16 17 17 17 17 17 17 15 15 19 17 17 12 20 24 17 14 19 24 29 25 26 29 26 26 25 31 33 40 50 53 54 56 57 60 61 60 61 63 62 63 66 66 66 67 67 67 68 69 71 70 70 71 72 73 73 73 74 74 74 75 75 75 74 74 75 74 74 74 73 74 74 74 74
27 23 21 19 17 17 17 18 17 17 17 15 15 16 16 15 18 19 20 17 13 13 18 15 16 24 14 9 19 17 19 18 24 25 26 30 25 32 31 34 39 48 55 55 54 55 56 60 60 60 62 63 62 62 64 64 65 65 66 66 67 67 68 68 70 72 73 73 73 73 73 73 73 74 74 74 74 74 74 74 74 74 74 73 74 74
35 32 22 19 17 17 17 18 19 18 18 18 17 15 17 16 17 20 19 22 19 15 12 17 16 24 25 26 24 20 19 13 20 21 23 24 29 27 29 24 38 52 55 53 54 53 55 59 61 61 62 64 63 63 63 64 63 64 65 65 66 66 66 67 68 70 73 73 73 73 73 73 73 74 74 73 73 71 71 72 74 74 74 73 72 74
41 31 26 21 24 18 17 18 20 19 18 17 16 16 16 14 14 16 17 24 22 19 14 13 20 19 25 31 25 15 26 15 23 17 25 19 21 27 31 33 44 57 58 54 54 51 55 56 61 64 63 64 65 65 63 63 64 64 64 64 64 65 65 65 66 68 71 72 71 72 73 73 73 72 71 71 71 71 71 71 72 73 73 72 71 72
28 32 29 24 26 24 19 21 18 18 18 17 16 17 17 16 16 15 17 23 23 21 17 14 15 17 26 35 38 34 23 19 20 19 23 27 29 28 33 44 52 59 60 55 55 55 56 55 60 64 64 67 66 63 64 64 64 63 63 63 63 64 64 65 67 67 69 70 70 70 72 71 71 71 71 71 70 70 70 70 70 72 72 72 72 72
31 30 31 25 24 23 20 19 18 19 19 18 19 17 18 16 18 18 17 22 20 32 30 20 19 26 27 37 31 29 22 28 26 23 18 26 36 35 37 45 60 58 61 60 59 57 56 59 61 66 67 67 65 64 66 66 64 62 62 63 62 62 64 65 65 66 68 69 69 70 70 71 70 70 70 70 70 69 69 69 69 70 71 72 72 73
34 37 37 38 34 26 30 36 30 31 17 16 16 18 17 16 16 19 22 21 22 27 25 28 28 26 28 23 26 24 27 27 25 28 25 26 31 40 57 57 54 58 60 57 61 59 61 62 62 65 68 65 63 64 64 64 64 63 65 64 62 63 63 66 66 68 67 68 68 70 70 70 71 71 70 71 71 71 70 69 68 69 70 71 72 72
36 33 34 42 39 33 26 27 25 28 21 16 15 19 19 19 19 19 18 19 32 26 20 28 34 25 26 26 27 29 27 29 27 30 27 28 49 40 39 50 57 47 55 58 59 62 63 64 65 66 68 66 63 64 64 64 63 64 65 64 64 62 62 64 66 67 68 69 70 70 69 70 72 72 72 72 73 72 71 70 70 71 71 72 72 71
32 27 30 31 28 24 23 21 23 25 26 28 24 20 22 22 23 24 26 23 29 25 24 31 35 32 27 23 25 29 31 32 22 25 26 26 30 35 46 46 40 33 37 55 62 64 65 65 67 66 65 66 63 63 63 63 63 65 65 65 65 62 62 65 66 67 67 69 70 71 72 72 73 73 73 72 73 73 72 72 73 72 72 73 73 73
32 27 31 26 25 23 23 22 22 25 26 26 25 27 26 23 24 25 24 22 23 36 37 36 39 35 30 27 25 23 26 24 25 27 28 29 24 36 32 32 24 24 23 31 55 64 67 66 67 68 66 67 64 64 62 63 65 64 63 64 63 65 63 65 67 68 68 68 70 72 73 73 74 74 74 74 74 74 74 73 73 73 73 73 73 74
28 32 30 22 26 25 23 21 23 24 25 25 24 24 24 24 24 25 24 27 31 28 26 27 33 34 32 35 33 33 34 30 31 29 27 33 31 27 28 25 27 28 27 34 54 60 65 68 67 69 68 68 67 65 64 64 65 64 62 62 62 65 64 63 67 68 68 69 71 72 73 74 74 74 74 75 75 75 75 74 74 74 74 74 74 75
25 27 25 27 25 24 22 21 21 21 21 21 23 23 23 22 23 22 26 25 28 31 31 28 30 29 30 31 29 31 32 33 29 30 29 29 25 30 31 29 31 37 35 32 43 57 61 63 66 67 67 65 65 66 65 66 64 63 61 61 62 62 63 64 65 67 70 69 72 73 74 74 75 75 75 75 75 75 75 75 74 75 75 74 74 75
26 25 24 22 22 24 21 20 19 20 21 22 23 22 24 24 25 24 25 27 26 26 29 29 28 31 32 33 31 32 30 31 29 26 30 33 39 33 34 34 33 33 35 41 49 62 55 51 57 66 62 61 61 62 63 65 63 64 64 64 64 65 64 62 63 68 71 71 72 74 74 75 75 75 75 76 75 76 76 76 75 75 74 74 75 75
26 23 22 25 23 23 21 20 20 23 20 21 29 24 25 24 25 25 23 24 26 26 26 28 30 34 33 34 34 35 33 34 35 37 36 38 41 42 36 39 37 36 34 34 43 49 56 61 59 57 60 63 62 57 60 64 63 64 64 64 65 65 66 66 66 68 71 72 73 74 75 76 75 75 76 76 76 76 76 76 75 75 75 74 75 75
26 27 23 27 24 23 24 24 22 21 21 35 31 33 29 25 24 24 26 26 30 31 29 29 30 33 35 33 34 36 38 36 35 35 31 32 40 43 45 39 41 43 49 52 53 49 57 66 68 67 64 59 57 60 61 60 62 63 63 64 63 65 70 68 69 70 71 73 73 74 75 76 75 75 76 76 76 76 76 75 75 75 75 73 74 74
24 23 25 24 24 23 22 22 20 21 31 27 31 37 41 39 38 39 38 39 37 33 40 42 41 40 42 43 43 44 42 36 36 41 42 43 42 39 42 40 38 39 41 49 60 69 72 68 68 66 66 65 62 58 58 59 59 59 60 62 62 65 67 69 70 69 70 73 73 74 75 74 75 75 75 75 76 75 75 75 75 75 75 74 73 73
25 26 24 21 27 22 22 21 21 30 25 26 26 34 35 39 39 33 29 29 39 52 50 50 53 51 48 49 52 52 56 53 47 42 35 32 36 40 37 40 40 51 61 65 63 64 70 72 71 69 71 70 65 60 58 56 57 59 59 61 61 67 67 68 69 69 71 72 73 72 74 74 75 74 74 75 75 75 75 75 75 75 75 75 74 72
29 25 26 23 22 23 23 20 21 20 21 24 30 39 41 43 43 45 41 39 51 51 52 55 55 55 54 54 56 59 58 50 43 38 35 28 27 38 46 55 58 60 60 64 68 68 70 71 71 71 70 69 69 64 60 58 59 62 63 63 63 64 67 68 69 70 72 72 72 72 74 74 74 74 74 75 75 75 75 74 75 75 75 74 73 71
24 26 30 25 19 20 22 20 19 21 24 36 33 36 40 42 38 48 36 30 53 53 53 53 52 55 56 56 57 59 54 44 39 38 65 62 62 62 61 62 62 62 65 67 67 67 68 71 72 70 70 70 65 64 63 63 62 62 64 64 64 66 67 68 68 69 70 71 72 73 73 73 74 74 74 74 74 74 74 74 74 74 75 73 73 73
24 24 24 23 25 21 21 19 18 23 23 31 36 39 40 44 39 44 33 29 53 53 53 55 54 54 55 58 58 58 56 47 37 54 58 59 59 61 64 65 66 66 66 66 67 69 71 73 73 71 66 64 67 67 65 64 63 64 64 64 62 62 65 68 68 69 70 70 71 72 73 73 74 75 74 75 75 75 74 74 74 74 73 73 73 73
25 26 24 21 19 20 22 20 21 23 27 32 35 34 44 40 36 33 29 48 50 53 53 55 54 55 57 56 57 55 58 59 60 60 58 59 60 62 64 64 65 66 67 66 67 70 70 70 70 69 68 72 72 68 67 66 64 65 67 67 66 65 65 68 70 70 71 72 70 70 73 74 74 74 74 75 75 74 73 73 73 73 74 72 72 72
27 27 25 24 20 17 18 16 17 22 31 26 27 21 25 28 24 23 51 53 56 54 56 55 55 57 57 57 57 57 57 57 58 58 58 59 61 64 64 64 65 66 66 68 70 69 70 68 70 70 68 71 70 69 68 68 67 68 69 68 67 67 65 68 70 71 72 73 72 70 72 73 74 75 74 75 75 75 74 74 74 74 73 71 73 74
28 26 25 22 25 23 23 21 17 16 29 35 40 32 39 29 40 54 53 55 53 54 55 56 56 57 57 57 57 57 57 57 57 58 59 60 61 62 64 65 66 65 66 67 68 69 67 69 69 69 70 68 69 67 66 66 69 69 70 69 70 68 68 68 70 72 73 73 72 72 73 74 75 75 75 75 75 74 74 74 74 74 75 75 74 74
32 29 28 24 28 22 21 21 20 26 40 39 42 35 48 49 52 55 55 50 53 54 56 57 57 57 56 57 57 57 58 59 59 59 60 60 61 62 63 64 65 65 66 65 65 67 67 69 69 69 70 70 72 73 70 68 71 71 71 75 75 73 73 73 73 74 73 74 74 73 73 74 74 75 75 75 75 74 75 74 74 74 74 75 74 74
32 31 37 33 40 33 27 23 35 39 40 38 38 41 46 48 51 54 55 55 55 53 56 56 57 56 57 58 59 59 59 59 59 59 60 61 61 62 63 64 65 65 65 66 66 68 68 68 69 69 69 69 71 72 74 74 74 75 75 75 74 74 72 72 73 73 73 73 73 73 73 73 75 75 75 75 75 75 74 75 75 74 75 75 74 73
39 35 38 37 33 37 37 37 39 37 37 37 35 43 45 44 43 46 51 55 56 57 57 56 57 58 58 59 58 60 60 60 60 60 61 62 63 64 65 65 66 66 66 66 67 68 68 68 69 69 69 70 70 70 71 72 72 73 73 74 74 75 74 73 73 73 73 73 73 73 73 74 74 75 75 75 75 75 75 75 75 74 74 73 73 73
28 30 35 31 34 30 29 36 36 37 39 40 40 41 42 42 42 46 52 55 56 57 57 58 59 60 60 60 59 60 61 61 62 62 63 64 64 65 64 65 66 66 67 67 67 68 68 68 67 68 68 69 69 70 70 71 71 72 72 73 74 75 75 74 73 73 73 73 73 74 74 74 73 73 74 75 74 74 74 74 74 74 73 73 72 72
30 34 32 32 32 30 31 33 35 36 38 39 37 38 38 39 40 45 48 52 55 57 56 58 60 60 60 59 60 60 62 61 62 62 63 63 64 65 65 66 66 66 67 68 68 68 68 68 68 68 68 68 69 70 70 71 72 73 73 73 74 73 73 74 74 73 74 74 74 74 74 73 73 73 73 73 74 72 72 72 72 72 73 72 72 72
31 33 30 35 30 30 34 34 35 36 35 35 35 36 36 37 42 49 52 54 54 55 56 57 58 59 60 59 60 60 60 60 60 61 62 62 63 64 65 66 66 66 67 67 67 67 67 66 67 67 67 67 68 69 69 70 70 70 71 72 73 74 74 73 73 74 73 72 71 70 72 71 73 71 71 73 74 73 74 72 71 71 72 72 72 72
32 29 32 31 30 27 27 30 38 33 32 33 39 43 45 45 45 45 48 51 52 54 57 57 57 58 59 60 60 60 60 60 61 61 62 62 63 64 65 66 66 66 67 67 67 67 67 66 67 67 67 68 68 68 68 68 67 68 69 70 70 71 72 72 73 73 73 72 73 73 71 71 70 70 70 70 70 72 73 71 64 70 73 71 68 64
34 35 30 28 29 28 32 37 38 38 38 38 40 41 42 43 43 44 47 50 52 52 55 58 58 59 59 59 59 60 60 60 60 61 61 62 63 63 64 65 65 66 66 66 66 66 67 67 67 67 67 67 66 66 66 66 67 68 68 69 70 71 71 72 71 71 71 72 73 72 73 73 72 74 74 73 73 73 71 71 75 59 57 61 62 58